Location: Pian di Sc�
(43.6333°N, 11.5500°E)
Time: 14:00:51
(UTC+00:00)

CBERS-1 - Pass Details

Date: 07 August 2020
Orbit: 769 x 778 km, 98.6° (Epoch: 24 September)

Event Time Altitude Azimuth Distance (km) Brightness Sun altitude
Rises 01:59:58 0° 9° (N) 3,262 8.2 -19.7°
Reaches altitude 10° 02:02:20 10° 5° (N) 2,329 7.2 -19.4°
Maximum altitude 02:07:18 53° 289° (WNW) 946 4.3 -18.8°
Enters shadow 02:09:11 35° 233° (SW) 1,240 4.5 -18.6°
